Simultaneous Nadir Overpasses (SNOs) Predictions

Prediction of SNOs between AQUA and NPP Satellite Orbit:

Table of predicted SNOs for the next 14.0 days since TLE Epoch: 8/7/2020
Index Date (AQUA) Time (AQUA) Lat,Lon (AQUA) SZA (AQUA ) Date (NPP) Time (NPP) Lat,Lon (NPP) SZA (NPP ) Distance(km) Time Diff (sec)
1 08/09/2020 21:49:11 74.78, 88.47 83.69 08/09/2020 21:48:07 74.78, 88.42 83.76 1.82 64
2 08/09/2020 22:38:11 -76.13,-100.08 97.86 08/09/2020 22:38:24 -76.13,-100.06 97.87 0.41 13
3 08/12/2020 14:05:30 75.33,-154.21 83.83 08/12/2020 14:04:52 75.32,-154.23 83.87 0.73 38
4 08/12/2020 14:54:32 -76.56, 17.20 97.60 08/12/2020 14:55:11 -76.56, 17.26 97.65 1.80 39
5 08/15/2020 06:21:49 75.81, -36.96 84.06 08/15/2020 06:21:37 75.81, -36.93 84.07 0.78 12
6 08/15/2020 07:11:00 -76.59, 133.20 96.86 08/15/2020 07:12:06 -76.58, 133.11 96.89 2.48 66
7 08/17/2020 21:49:12 -74.85, -91.36 94.06 08/17/2020 21:48:10 -74.85, -91.39 94.00 1.16 62
8 08/17/2020 22:38:09 76.27, 80.38 84.32 08/17/2020 22:38:23 76.29, 80.47 84.29 2.67 14
9 08/20/2020 14:05:30 -75.43, 26.08 93.89 08/20/2020 14:04:54 -75.43, 26.10 93.87 0.60 36
